{"data":{"norad_id":62824,"intl_designator":"2025-018U","name":"STARLINK-32852","alt_names":[],"object_type":"PAYLOAD","status":"ACTIVE","operator":null,"country":"US","launch_date":"2025-01-24","launch_site_code":"AFWTR","launch_vehicle":null,"mission":null,"orbit_class":"UNKNOWN","rcs_meters":null,"size_class":null,"mass_kg":null,"dimensions":null,"purposes":["comms"],"wikipedia_slug":null,"has_3d_model":false,"image_url":null,"decayed_at":null,"tle_current":{"epoch":"2026-05-24T21:20:14.762400Z","epoch_age_seconds":84691,"freshness":"FRESH","line1":"1 62824U 25018U   26144.88905975  .00018560  00000+0  63726-3 0  9992","line2":"2 62824  53.1592 315.7448 0001108  83.0668 277.0459 15.30195921 74845","mean_motion":15.30195921,"eccentricity":0.0001108,"inclination_deg":53.1592,"raan_deg":315.7448,"arg_perigee_deg":83.0668,"mean_anomaly_deg":277.0459,"bstar":0.00063726,"rev_number":7484,"period_min":94.105596560403,"perigee_km":474.46789584639,"apogee_km":475.98660136388,"semimajor_km":6853.3642486051,"source":"CELESTRAK","updated_at":"2026-05-25T13:38:19.776624Z"}}}